Tracking 19800 objects as of 23-Jul-2019
HD Live streaming from Space Station
objects crossing your sky now

COSMOS 1782

Track COSMOS 1782 now!
10-day predictions
COSMOS 1782 is classified as:


NORAD ID: 16986
Int'l Code: 1986-074A
Perigee: 546.4 km
Apogee: 558.1 km
Inclination: 82.5 °
Period: 95.5 minutes
Semi major axis: 6923 km
RCS: 9.471 m2 (large)
Launch date: September 30, 1986
Source: Commonwealth of Independent States (former USSR) (CIS)
Launch site: PLESETSK MISSILE AND SPACE COMPLEX (PKMTR)
aabbcc
Your satellite tracking list
Your tracking list is empty




NASA's NSSDC Master Catalog

Two Line Element Set (TLE):
1 16986U 86074A   19203.82654671 -.00000109 +00000-0 -92178-5 0  9993
2 16986 082.5059 096.0881 0008453 237.8530 122.1878 15.07090626764979
Source of the keplerian elements: AFSPC